SJV911 WIBB-WIII

Flight info

Callsign SJV911
Flight time N/A
Altitude 37000
Route ISROR T5 BUNIK
Aircraft A320/M-SDE3FGHIRWY/LB1

Departure

Time N/A
Airport Sultan Syarif Kasim II International Airport / Roesmin Nurjadin AFB (WIBB)

Arrival

Time 2026-04-29 12:39
Airport Soekarno-Hatta International Airport (WIII)
Time Latitude Longitude Altitude Speed Heading
2026-04-29 11:38 -1.54140 103.88972 36994 ft 442 kts 141°
2026-04-29 11:38 -1.56538 103.90916 36994 ft 442 kts 141°
2026-04-29 11:39 -1.61310 103.94782 36994 ft 442 kts 141°
2026-04-29 11:39 -1.66084 103.98652 36994 ft 442 kts 141°
2026-04-29 11:40 -1.70879 104.02537 36994 ft 442 kts 141°
2026-04-29 11:40 -1.75641 104.06397 36994 ft 442 kts 141°
2026-04-29 11:41 -1.80451 104.10296 36994 ft 442 kts 141°
2026-04-29 11:41 -1.85202 104.14147 36994 ft 442 kts 141°
2026-04-29 11:42 -1.89973 104.18018 36997 ft 442 kts 141°
2026-04-29 11:42 -1.94745 104.21885 36995 ft 442 kts 141°
2026-04-29 11:43 -1.99527 104.25755 36994 ft 443 kts 141°
2026-04-29 11:43 -2.04348 104.29658 36994 ft 443 kts 141°
2026-04-29 11:44 -2.09124 104.33527 36994 ft 443 kts 141°
2026-04-29 11:44 -2.13900 104.37381 36994 ft 443 kts 141°
2026-04-29 11:45 -2.18673 104.41231 36994 ft 443 kts 141°
2026-04-29 11:45 -2.23476 104.45116 36994 ft 443 kts 141°
2026-04-29 11:46 -2.28272 104.49003 36994 ft 443 kts 141°
2026-04-29 11:46 -2.33042 104.52869 36994 ft 443 kts 141°
2026-04-29 11:47 -2.37846 104.56763 36994 ft 443 kts 141°
2026-04-29 11:47 -2.42633 104.60644 36994 ft 443 kts 141°
2026-04-29 11:48 -2.47428 104.64532 36994 ft 443 kts 141°
2026-04-29 11:48 -2.52205 104.68427 36994 ft 443 kts 141°
2026-04-29 11:49 -2.56974 104.72318 36994 ft 443 kts 141°
2026-04-29 11:49 -2.61776 104.76222 36994 ft 443 kts 141°
2026-04-29 11:50 -2.66570 104.80113 36994 ft 443 kts 141°
2026-04-29 11:50 -2.71360 104.84000 36994 ft 443 kts 141°
2026-04-29 11:51 -2.76163 104.87895 36994 ft 443 kts 141°
2026-04-29 11:51 -2.80934 104.91766 36994 ft 443 kts 141°
2026-04-29 11:52 -2.85723 104.95652 36994 ft 443 kts 141°
2026-04-29 11:52 -2.90511 104.99538 36994 ft 443 kts 141°
2026-04-29 11:53 -2.95308 105.03432 36994 ft 443 kts 141°
2026-04-29 11:53 -3.00097 105.07321 36994 ft 443 kts 141°
2026-04-29 11:54 -3.04927 105.11243 36994 ft 443 kts 141°
2026-04-29 11:54 -3.09726 105.15140 36994 ft 444 kts 141°
2026-04-29 11:55 -3.14516 105.19013 36994 ft 444 kts 141°
2026-04-29 11:55 -3.19341 105.22922 36994 ft 444 kts 141°
2026-04-29 11:56 -3.24140 105.26823 36994 ft 444 kts 141°
2026-04-29 11:56 -3.28893 105.30732 36994 ft 444 kts 140°
2026-04-29 11:57 -3.33639 105.34700 36994 ft 444 kts 140°
2026-04-29 11:57 -3.38377 105.38661 36994 ft 444 kts 140°
2026-04-29 11:58 -3.43041 105.42561 36994 ft 444 kts 140°
2026-04-29 11:58 -3.47809 105.46545 36994 ft 444 kts 140°
2026-04-29 11:59 -3.52530 105.50494 36994 ft 444 kts 140°
2026-04-29 11:59 -3.57271 105.54458 36994 ft 444 kts 140°
2026-04-29 12:00 -3.62028 105.58422 36994 ft 444 kts 140°
2026-04-29 12:00 -3.66791 105.62391 36994 ft 444 kts 140°
2026-04-29 12:01 -3.71540 105.66359 36994 ft 444 kts 140°
2026-04-29 12:01 -3.76274 105.70342 36994 ft 444 kts 140°
2026-04-29 12:02 -3.81018 105.74319 36994 ft 444 kts 140°
2026-04-29 12:02 -3.85759 105.78287 36994 ft 444 kts 140°
2026-04-29 12:03 -3.90510 105.82259 36994 ft 444 kts 140°
2026-04-29 12:03 -3.95263 105.86232 36994 ft 444 kts 140°
2026-04-29 12:04 -4.00015 105.90205 36994 ft 444 kts 140°
2026-04-29 12:04 -4.04758 105.94171 36994 ft 444 kts 140°
2026-04-29 12:05 -4.09492 105.98130 36994 ft 444 kts 140°
2026-04-29 12:05 -4.14274 106.02111 36994 ft 444 kts 140°
2026-04-29 12:06 -4.19037 106.06076 36994 ft 444 kts 140°
2026-04-29 12:06 -4.23790 106.10046 36994 ft 444 kts 140°
2026-04-29 12:07 -4.28544 106.14023 36994 ft 445 kts 140°
2026-04-29 12:07 -4.33292 106.17998 36994 ft 445 kts 140°
2026-04-29 12:08 -4.38025 106.21959 36994 ft 445 kts 140°
2026-04-29 12:08 -4.42777 106.25938 36994 ft 445 kts 140°
2026-04-29 12:09 -4.47533 106.29922 36994 ft 445 kts 140°
2026-04-29 12:09 -4.52297 106.33913 36994 ft 445 kts 140°
2026-04-29 12:10 -4.57026 106.37875 36994 ft 445 kts 140°
2026-04-29 12:10 -4.61797 106.41873 36994 ft 445 kts 140°
2026-04-29 12:11 -4.66544 106.45853 36994 ft 445 kts 140°
2026-04-29 12:11 -4.71286 106.49831 36784 ft 444 kts 140°
2026-04-29 12:12 -4.73649 106.51815 36027 ft 449 kts 140°
2026-04-29 12:12 -4.76046 106.53827 35069 ft 456 kts 140°
2026-04-29 12:12 -4.78496 106.55882 34179 ft 459 kts 140°
2026-04-29 12:12 -4.80949 106.57928 33374 ft 461 kts 141°
2026-04-29 12:13 -4.83489 106.59875 32572 ft 462 kts 144°
2026-04-29 12:13 -4.86133 106.61678 31753 ft 463 kts 147°
2026-04-29 12:13 -4.88891 106.63336 30895 ft 464 kts 151°
2026-04-29 12:13 -4.91759 106.64844 29995 ft 466 kts 154°
2026-04-29 12:14 -4.94693 106.66222 29167 ft 466 kts 155°
2026-04-29 12:14 -4.97661 106.67592 28344 ft 466 kts 155°
2026-04-29 12:14 -5.00585 106.68932 27719 ft 460 kts 155°
2026-04-29 12:14 -5.03474 106.70254 27222 ft 453 kts 155°
2026-04-29 12:15 -5.06319 106.71553 26723 ft 447 kts 155°
2026-04-29 12:15 -5.09167 106.72854 26216 ft 441 kts 155°
2026-04-29 12:15 -5.11939 106.74117 25716 ft 436 kts 155°
2026-04-29 12:15 -5.14681 106.75365 25313 ft 428 kts 155°
2026-04-29 12:16 -5.17352 106.76582 25193 ft 413 kts 155°
2026-04-29 12:16 -5.19935 106.77753 24866 ft 405 kts 155°
2026-04-29 12:16 -5.22495 106.78911 24540 ft 397 kts 156°
2026-04-29 12:16 -5.24981 106.80035 24142 ft 392 kts 155°
2026-04-29 12:17 -5.27468 106.81160 23751 ft 386 kts 155°
2026-04-29 12:17 -5.29885 106.82254 23371 ft 381 kts 155°
2026-04-29 12:17 -5.32287 106.83343 22748 ft 375 kts 155°
2026-04-29 12:17 -5.34640 106.84409 22126 ft 362 kts 155°
2026-04-29 12:18 -5.36884 106.85427 21717 ft 345 kts 155°
2026-04-29 12:18 -5.39034 106.86403 21354 ft 337 kts 155°
2026-04-29 12:18 -5.41160 106.87367 21277 ft 328 kts 155°
2026-04-29 12:18 -5.43251 106.88315 21204 ft 323 kts 155°
2026-04-29 12:19 -5.45303 106.89220 21115 ft 320 kts 161°
2026-04-29 12:19 -5.47467 106.89635 21011 ft 317 kts 180°
2026-04-29 12:19 -5.49665 106.89325 20587 ft 321 kts 198°
2026-04-29 12:19 -5.51742 106.88561 20164 ft 322 kts 201°
2026-04-29 12:20 -5.53836 106.87725 19735 ft 323 kts 201°
2026-04-29 12:20 -5.55925 106.86890 19313 ft 324 kts 201°
2026-04-29 12:20 -5.58032 106.86060 18889 ft 324 kts 201°
2026-04-29 12:20 -5.60110 106.85248 18473 ft 324 kts 201°
2026-04-29 12:21 -5.62226 106.84427 18049 ft 323 kts 201°
2026-04-29 12:21 -5.64341 106.83608 17627 ft 323 kts 201°
2026-04-29 12:21 -5.66408 106.82810 17214 ft 322 kts 201°
2026-04-29 12:21 -5.68507 106.82000 16794 ft 321 kts 201°
2026-04-29 12:22 -5.70612 106.81188 16373 ft 320 kts 201°
2026-04-29 12:22 -5.72679 106.80391 15960 ft 319 kts 201°
2026-04-29 12:22 -5.74747 106.79594 15546 ft 318 kts 201°
2026-04-29 12:22 -5.76808 106.78799 15133 ft 317 kts 201°
2026-04-29 12:23 -5.78882 106.77999 14718 ft 315 kts 201°
2026-04-29 12:23 -5.80933 106.77208 14308 ft 314 kts 201°
2026-04-29 12:23 -5.82942 106.76434 13906 ft 313 kts 201°
2026-04-29 12:23 -5.84973 106.75629 13487 ft 312 kts 205°
2026-04-29 12:24 -5.86696 106.74342 13051 ft 310 kts 231°
2026-04-29 12:24 -5.87737 106.72495 12789 ft 303 kts 247°
2026-04-29 12:24 -5.88528 106.70506 12388 ft 302 kts 249°
2026-04-29 12:24 -5.89275 106.68546 12016 ft 300 kts 249°
2026-04-29 12:25 -5.90040 106.66569 11651 ft 298 kts 249°
2026-04-29 12:25 -5.90792 106.64656 11303 ft 296 kts 248°
2026-04-29 12:25 -5.92314 106.60833 10703 ft 287 kts 248°
2026-04-29 12:26 -5.93052 106.58988 10392 ft 284 kts 248°
2026-04-29 12:26 -5.93795 106.57141 10060 ft 281 kts 248°
2026-04-29 12:26 -5.94522 106.55353 9818 ft 275 kts 248°
2026-04-29 12:26 -5.95249 106.53570 9590 ft 270 kts 248°
2026-04-29 12:27 -5.95951 106.51850 9378 ft 264 kts 248°
2026-04-29 12:27 -5.96643 106.50156 9171 ft 259 kts 248°
2026-04-29 12:27 -5.97319 106.48500 8972 ft 255 kts 248°
2026-04-29 12:27 -5.97988 106.46861 8775 ft 251 kts 248°
2026-04-29 12:28 -5.98653 106.45230 8580 ft 249 kts 248°
2026-04-29 12:28 -5.99306 106.43631 8388 ft 248 kts 248°
2026-04-29 12:28 -5.99965 106.42017 8192 ft 245 kts 248°
2026-04-29 12:28 -6.00606 106.40446 8002 ft 238 kts 248°
2026-04-29 12:29 -6.01232 106.38909 7820 ft 238 kts 248°
2026-04-29 12:29 -6.01857 106.37376 7636 ft 237 kts 248°
2026-04-29 12:29 -6.02486 106.35831 7451 ft 237 kts 248°
2026-04-29 12:29 -6.03107 106.34304 7267 ft 236 kts 248°
2026-04-29 12:30 -6.03791 106.32811 7159 ft 235 kts 233°
2026-04-29 12:30 -6.05046 106.31791 7160 ft 235 kts 199°
2026-04-29 12:30 -6.06669 106.31624 6958 ft 237 kts 171°
2026-04-29 12:30 -6.08274 106.31921 6685 ft 235 kts 168°
2026-04-29 12:31 -6.09893 106.32252 6418 ft 232 kts 168°
2026-04-29 12:31 -6.11473 106.32560 6165 ft 232 kts 169°
2026-04-29 12:31 -6.13066 106.32855 5913 ft 231 kts 169°
2026-04-29 12:31 -6.14636 106.33137 5666 ft 230 kts 170°
2026-04-29 12:32 -6.16225 106.33419 5417 ft 229 kts 170°
2026-04-29 12:32 -6.17805 106.33698 5205 ft 228 kts 170°
2026-04-29 12:32 -6.19356 106.33974 5172 ft 228 kts 168°
2026-04-29 12:32 -6.20807 106.34601 4968 ft 231 kts 136°
2026-04-29 12:33 -6.21763 106.35886 4708 ft 227 kts 121°
2026-04-29 12:33 -6.22563 106.37267 4450 ft 226 kts 120°
2026-04-29 12:33 -6.23347 106.38623 4203 ft 225 kts 120°
2026-04-29 12:33 -6.23850 106.40091 4171 ft 225 kts 91°
2026-04-29 12:34 -6.23536 106.41641 4208 ft 223 kts 68°
2026-04-29 12:34 -6.22924 106.43026 4197 ft 209 kts 65°
2026-04-29 12:34 -6.22325 106.44315 4040 ft 203 kts 65°
2026-04-29 12:34 -6.21744 106.45629 3675 ft 208 kts 66°
2026-04-29 12:35 -6.21171 106.46993 3305 ft 210 kts 68°
2026-04-29 12:35 -6.20633 106.48324 3174 ft 203 kts 68°
2026-04-29 12:35 -6.20105 106.49651 3060 ft 203 kts 68°
2026-04-29 12:35 -6.19586 106.50962 2819 ft 203 kts 68°
2026-04-29 12:36 -6.19064 106.52280 2548 ft 202 kts 68°
2026-04-29 12:36 -6.18558 106.53555 2373 ft 188 kts 68°
2026-04-29 12:36 -6.18081 106.54759 2085 ft 179 kts 68°
2026-04-29 12:36 -6.17638 106.55875 1844 ft 168 kts 68°
2026-04-29 12:37 -6.17213 106.56942 1594 ft 158 kts 68°
2026-04-29 12:37 -6.16817 106.57938 1368 ft 150 kts 68°
2026-04-29 12:37 -6.16439 106.58888 1172 ft 139 kts 68°
2026-04-29 12:37 -6.16084 106.59779 1004 ft 138 kts 68°
2026-04-29 12:38 -6.15725 106.60679 830 ft 137 kts 68°
2026-04-29 12:38 -6.15371 106.61568 653 ft 137 kts 68°
2026-04-29 12:38 -6.15014 106.62459 469 ft 137 kts 68°
2026-04-29 12:38 -6.14657 106.63342 243 ft 136 kts 68°
2026-04-29 12:39 -6.14298 106.64230 105 ft 136 kts 69°
2026-04-29 12:39 -6.13968 106.65081 48 ft 115 kts 68°
2026-04-29 12:39 -6.13731 106.65667 48 ft 65 kts 68°
2026-04-29 12:39 -6.13614 106.65961 48 ft 36 kts 69°
2026-04-29 12:40 -6.13533 106.66143 48 ft 21 kts 58°
2026-04-29 12:40 -6.13436 106.66252 48 ft 20 kts 40°
2026-04-29 12:40 -6.13336 106.66299 48 ft 13 kts 337°
2026-04-29 12:40 -6.13323 106.66217 48 ft 13 kts 245°
2026-04-29 12:41 -6.13361 106.66129 48 ft 13 kts 249°
2026-04-29 12:41 -6.13396 106.66035 48 ft 14 kts 249°
2026-04-29 12:41 -6.13433 106.65942 48 ft 14 kts 248°
2026-04-29 12:41 -6.13471 106.65848 48 ft 14 kts 248°
2026-04-29 12:42 -6.13509 106.65750 48 ft 14 kts 248°
2026-04-29 12:42 -6.13549 106.65653 48 ft 15 kts 248°
2026-04-29 12:42 -6.13588 106.65553 48 ft 15 kts 248°
2026-04-29 12:42 -6.13628 106.65453 48 ft 15 kts 248°
2026-04-29 12:43 -6.13661 106.65352 48 ft 15 kts 279°
2026-04-29 12:43 -6.13607 106.65268 48 ft 14 kts 264°
2026-04-29 12:43 -6.13641 106.65174 48 ft 14 kts 248°
2026-04-29 12:43 -6.13679 106.65080 48 ft 14 kts 251°
2026-04-29 12:44 -6.13629 106.65009 48 ft 14 kts 339°
2026-04-29 12:44 -6.13534 106.64971 48 ft 14 kts 338°
2026-04-29 12:44 -6.13502 106.64958 48 ft 14 kts 339°
2026-04-29 12:44 -6.13340 106.64895 48 ft 15 kts 338°
2026-04-29 12:45 -6.13240 106.64855 48 ft 15 kts 339°
2026-04-29 12:45 -6.13140 106.64816 48 ft 15 kts 338°
2026-04-29 12:45 -6.13048 106.64779 55 ft 12 kts 337°
2026-04-29 12:45 -6.12958 106.64741 66 ft 15 kts 338°
2026-04-29 12:46 -6.12855 106.64700 60 ft 14 kts 338°
2026-04-29 12:46 -6.12751 106.64659 48 ft 16 kts 338°
2026-04-29 12:46 -6.12644 106.64616 48 ft 16 kts 338°
2026-04-29 12:46 -6.12536 106.64573 48 ft 16 kts 339°
2026-04-29 12:47 -6.12428 106.64530 48 ft 16 kts 338°
2026-04-29 12:47 -6.12322 106.64487 48 ft 16 kts 338°
2026-04-29 12:47 -6.12218 106.64447 48 ft 14 kts 343°
2026-04-29 12:47 -6.12149 106.64497 48 ft 13 kts 71°
2026-04-29 12:48 -6.12113 106.64590 48 ft 14 kts 67°
2026-04-29 12:48 -6.12076 106.64682 48 ft 14 kts 68°
2026-04-29 12:48 -6.12037 106.64777 48 ft 14 kts 68°
2026-04-29 12:48 -6.11999 106.64874 48 ft 15 kts 69°
2026-04-29 12:49 -6.11961 106.64972 48 ft 15 kts 68°
2026-04-29 12:49 -6.11920 106.65070 48 ft 15 kts 68°
2026-04-29 12:49 -6.11887 106.65154 48 ft 6 kts 71°
2026-04-29 12:49 -6.11895 106.65180 48 ft 3 kts 150°
2026-04-29 12:50 -6.11923 106.65182 48 ft 4 kts 183°
2026-04-29 12:50 -6.11952 106.65176 48 ft 2 kts 192°
2026-04-29 12:50 -6.11955 106.65176 48 ft 0 kts 192°